EDP MEIA MARATONA DO DÃO - 10K

Tabela de Prémios | Solicitar Prémio


Dorsal Lugar Nome Sexo Categoria Clube Tempo Oficial Tempo Chip Fotografia Certificado
4846 245 Luz Paulo Geral F-V45 Guardarunners 00:51:58.650 00:51:00.840 Ver Descarregar
4341 258 Maria Vale Geral F-V45 Viriathvs Runners Viseu 00:52:20.900 00:52:15.583 Ver Descarregar
4074 260 Isabel Inácio Geral F-V45 Correr Viseu 00:52:24.400 00:51:50.930 Ver Descarregar
5044 395 Cecilia Monteiro Geral F-V45 Guardarunners 00:56:37.660 00:55:30.093 Ver Descarregar
5070 440 Maria Abreu Geral F-V45 Viseu 360 00:58:00.170 00:57:29.607 Ver Descarregar
4984 466 Raquel Mendes Geral F-V45 C. B. Viseu Running Team 00:58:55.413 00:58:03.646 Ver Descarregar
4985 491 Sílvia Coelho Geral F-V45 C. B. Viseu Running Team 00:59:26.667 00:58:35.857 Ver Descarregar
4213 587 Lidia Martins Geral F-V45 Viriathvs Runners Viseu 01:02:26.927 01:00:54.864 Ver Descarregar
4948 589 Isabel Tomé Geral F-V45 Individual 01:02:31.670 01:01:35.847 Ver Descarregar
4361 628 Goreti Freitas Geral F-V45 Cmviseu 01:03:40.680 01:02:41.097 Ver Descarregar
5017 630 Ana Coelho Geral F-V45 Individual 01:03:44.927 01:02:34.117 Ver Descarregar
4176 638 Mariadocéu Simões Geral F-V45 Os Sei Lá 01:03:55.423 01:02:33.113 Ver Descarregar
4817 640 Fátima Pipo Geral F-V45 Acrd/Psp Viseu Runners 01:03:57.923 01:03:26.810 Ver Descarregar
4411 669 Ana Mendes Geral F-V45 Individual 01:04:59.177 01:03:43.617 Ver Descarregar
4839 670 Salete Santos Geral F-V45 Viriathvs Runners Viseu 01:05:05.683 01:04:53.873 Ver Descarregar
4772 677 Rosalina Costa Geral F-V45 M. Costas Grupo 01:05:11.270 01:04:05.960 Ver Descarregar
4911 692 Olga Simoes Geral F-V45 Individual 01:05:43.927 01:04:36.897 Ver Descarregar
5010 707 Ana Antunes Geral F-V45 Individual 01:06:16.687 01:04:29.760 Ver Descarregar
4417 718 Cristina Martins Geral F-V45 Individual 01:06:30.430 01:06:13.593 Ver Descarregar
4124 721 Paula Lourenço Geral F-V45 Correr Viseu 01:06:34.937 01:04:54.867 Ver Descarregar
4866 751 Isabel Custódio Geral F-V45 Transpira Viseu Phaarmpeças 01:07:39.680 01:05:35.113 Ver Descarregar
4377 782 Isabel Amaral Geral F-V45 Individual 01:09:06.933 01:08:33.873 Ver Descarregar
4146 786 Lurdes Lopes Geral F-V45 Viseu360 01:09:22.937 01:07:32.624 Ver Descarregar
4522 800 Ana Peres Geral F-V45 Viseu360 01:10:07.937 01:08:05.364 Ver Descarregar
4951 805 Maria Mendes Geral F-V45 Individual 01:10:31.687 01:10:18.857 Ver Descarregar
4405 819 Rita Nascimento Geral F-V45 Individual 01:11:31.440 01:09:11.870 Ver Descarregar
4689 827 Paula Sobral Geral F-V45 Troll 01:11:54.943 01:09:38.880 Ver Descarregar
4874 832 Gilda Custódio Geral F-V45 @Correrqueiriga 01:12:09.187 01:10:06.614 Ver Descarregar
4269 836 Carina Freitas Geral F-V45 Individual 01:13:06.440 01:11:22.120 Ver Descarregar
5056 855 Maria Bandeira Geral F-V45 Move Martifer Gym 01:15:04.160 01:14:05.343 Ver Descarregar
4028 867 Cândida Esteves Geral F-V45 Ccd Crédito Agrícola Mútuo 01:17:00.947 01:14:50.637 Ver Descarregar
4750 877 Carmo Pinto Geral F-V45 Individual 01:18:27.450 01:16:44.123 Ver Descarregar
4071 912 Ilda Leal Geral F-V45 Viriathvs Runners Viseu 01:26:00.323 01:24:28.830 Ver Descarregar
4444 928 Anabela Pina Geral F-V45 Zaatam Runners 01:40:27.243 01:38:33.683 Ver Descarregar
4448 929 Elisabete Almeida Geral F-V45 Zaatam Runners 01:40:29.947 01:38:36.387 Ver Descarregar